Zurück zum Katalog

STARLINK-35431

AktivKommunikationVLEO
NORAD 66030·PAYLOAD·🇺🇸 United States

Gestartet Oct 16, 2025 von Cape Canaveral Space Force Station

Loading…

Nächste Überflüge (nächste 24 Stunden)

TLE

AktuellSource: CelesTrak SupGP

Epoche: Sep 15, 2026, 03:15 UTC

1 66030C 25232AB  26258.13590278  .00023414  00000+0  69167-3 0  2580
2 66030  53.1585 300.7864 0001229  83.3405 328.3713 15.34382822    15

Verfolge STARLINK-35431 in Echtzeit mit AllMySat

Download on the App Store